This is the latest recevied weather packets stored in our database for station/object N5SNT-2. If no packets are shown the sender has not sent any weather packets the latest 1 day(s).
| Time | Temp. | Humidity | Pressure | Rain* | Wind** | Luminosity | Snow |
|---|---|---|---|---|---|---|---|
| 1778118143 | 18.33° C | 83% | 1014 hPa | 0 mm | - | 0 W/m² | - |
| 1778117843 | 18.89° C | 83% | 1014 hPa | 0 mm | - | 0 W/m² | - |
| 1778117545 | 18.89° C | 83% | 1014 hPa | 0 mm | - | 0 W/m² | - |
| 1778117244 | 18.89° C | 82% | 1014 hPa | 0 mm | - | 0 W/m² | - |
| 1778116944 | 18.89° C | 82% | 1014 hPa | 0 mm | - | 0 W/m² | - |
| 1778116343 | 18.89° C | 82% | 1014 hPa | 0 mm | - | 1 W/m² | - |
| 1778116044 | 18.89° C | 82% | 1013 hPa | 0 mm | - | 2 W/m² | - |
| 1778115745 | 18.89° C | 81% | 1013 hPa | 0 mm | - | 3 W/m² | - |
| 1778115444 | 18.89° C | 81% | 1013 hPa | 0 mm | - | 3 W/m² | - |
| 1778114844 | 19.44° C | 80% | 1013 hPa | 0 mm | - | 9 W/m² | - |
| 1778114543 | 19.44° C | 80% | 1013 hPa | 0 mm | - | 14 W/m² | - |
| 1778113944 | 20° C | 80% | 1013 hPa | 0 mm | - | 22 W/m² | - |
| 1778113643 | 20° C | 79% | 1013 hPa | 0 mm | - | 26 W/m² | - |
| 1778113344 | 20° C | 79% | 1013 hPa | 0 mm | - | 30 W/m² | - |
| 1778112144 | 20.56° C | 79% | 1012 hPa | 0 mm | - | 59 W/m² | - |
| 1778111544 | 21.11° C | 78% | 1012 hPa | 0 mm | - | 88 W/m² | - |
| 1778110944 | 21.11° C | 77% | 1012 hPa | 0 mm | - | 90 W/m² | - |
| 1778110344 | 21.67° C | 77% | 1012 hPa | 0 mm | - | 116 W/m² | - |
| 1778109466 | 22.78° C | 75% | 1012 hPa | 0 mm | - | 146 W/m² | - |
| 1778109143 | 22.78° C | 75% | 1012 hPa | 0 mm | - | 164 W/m² | - |
| 1778105544 | 25.56° C | 74% | 1011 hPa | 0 mm | - | 235 W/m² | - |
| 1778103744 | 27.22° C | 73% | 1011 hPa | 0 mm | - | 341 W/m² | - |
| 1778102544 | 27.78° C | 73% | 1011 hPa | 0 mm | - | 386 W/m² | - |
| 1778102244 | 27.78° C | 75% | 1010 hPa | 0 mm | - | 386 W/m² | - |
| 1778101644 | 27.78° C | 75% | 1010 hPa | 0 mm | - | 277 W/m² | - |
* Rain latest hour (hover to see other rain measurements)
** Current wind speed in m/s (hover to see current wind gust speed)